This is the latest recevied weather packets stored in our database for station/object HB9FHL-13. If no packets are shown the sender has not sent any weather packets the latest 10 day(s).
| Time | Temp. | Humidity | Pressure | Rain* | Wind** | Luminosity | Snow |
|---|---|---|---|---|---|---|---|
| 1788040835 | 20.56° C | - | 1019.7 hPa | 0 mm | - | - | - |
| 1788040536 | 21.11° C | - | 1020.4 hPa | 0 mm | - | - | - |
| 1788040234 | 20.56° C | - | 1017.5 hPa | 0 mm | - | - | - |
| 1788039933 | 20° C | - | 1017.8 hPa | 0 mm | - | - | - |
| 1788039632 | 20.56° C | - | 1019.7 hPa | 0 mm | - | - | - |
| 1788039331 | 20.56° C | - | 1019.5 hPa | 0 mm | - | - | - |
| 1788039020 | 20.56° C | - | 1019.6 hPa | 0 mm | - | - | - |
| 1788038719 | 20.56° C | - | 1015.8 hPa | 0 mm | - | - | - |
| 1788038419 | 20° C | - | 1022.1 hPa | 0 mm | - | - | - |
| 1788038118 | 19.44° C | - | 1014.3 hPa | 0 mm | - | - | - |
| 1788037816 | 20.56° C | - | 1017.5 hPa | 0 mm | - | - | - |
| 1788037516 | 20.56° C | - | 1022 hPa | 0 mm | - | - | - |
| 1788037221 | 20° C | - | 1018.4 hPa | 0 mm | - | - | - |
| 1788036905 | 20° C | - | 1020.5 hPa | 0 mm | - | - | - |
| 1788036605 | 20° C | - | 1021.7 hPa | 0 mm | - | - | - |
| 1788036000 | 20° C | - | 1025.5 hPa | 0 mm | - | - | - |
| 1788035700 | 20° C | - | 1018.3 hPa | 0 mm | - | - | - |
| 1788035396 | 20.56° C | - | 1018.1 hPa | 0 mm | - | - | - |
| 1788034795 | 20° C | - | 1019.5 hPa | 0 mm | - | - | - |
| 1788034194 | 20° C | - | 1021 hPa | 0 mm | - | - | - |
| 1788033594 | 19.44° C | - | 1016.3 hPa | 0 mm | - | - | - |
| 1788033295 | 19.44° C | - | 1018.3 hPa | 0 mm | - | - | - |
| 1788032989 | 20° C | - | 1020.3 hPa | 0 mm | - | - | - |
| 1788032689 | 20° C | - | 1016.7 hPa | 0 mm | - | - | - |
| 1788032388 | 19.44° C | - | 1017.8 hPa | 0 mm | - | - | - |
* Rain since midnight (hover to see other rain measurements)
** Current wind speed in m/s (hover to see current wind gust speed)